Starlink 31168

operational
NORAD ID: 58798 Int'l Des: 2024-012 Owner: SPXS Country: US Constellation: starlink
LEOCIRCULAR

关于 Starlink 31168

正在加载描述...

实时位置

正在加载3D地球...

即将过境

高度历史

Altitude vs Time

uPlot chart will show altitude changes over time

两行轨道根数

1 58798U 24012M 25352.20081723 -.00001544 00000-0 -46619-4 0 9992
2 58798 43.0012 265.4245 0000906 260.2260 99.8489 15.27576079108779
Epoch: Dec 18, 2025 • Age: 10 hours

当前状态

高度 482.3 km
速度 7.63 km/s
星下点 6.26°N, 124.14°E
发射日期 Jan 15, 2024
运行时间 1.9 years
类型 internet

技术详情

分类 Payload
质量 730.00 kg
干质量 700.00 kg
总质量 730.00 kg
长度 0.30 m
直径 4.10 m
跨度 29.00 m
形状 Box + pan
制造商 SPXS
平台类型 Starlink V2M
阶段状态 In Orbit
所有者/国家 SPXS/US

大型星座

Loading constellations...